This is the latest recevied weather packets stored in our database for station/object KD5UMO-1. If no packets are shown the sender has not sent any weather packets the latest 10 day(s).
| Time | Temp. | Humidity | Pressure | Rain* | Wind** | Luminosity | Snow |
|---|---|---|---|---|---|---|---|
| 1777551567 | 15° C | 93% | 1014.4 hPa | 0 mm | - | 32 W/m² | - |
| 1777551264 | 15° C | 93% | 1014.4 hPa | 0 mm | - | 22 W/m² | - |
| 1777550961 | 15° C | 93% | 1014.3 hPa | 0 mm | - | 17 W/m² | - |
| 1777550658 | 15° C | 93% | 1014.5 hPa | 0 mm | - | 13 W/m² | - |
| 1777550354 | 14.44° C | 93% | 1014.2 hPa | 0 mm | - | 13 W/m² | - |
| 1777550049 | 14.44° C | 93% | 1014.4 hPa | 0 mm | - | 12 W/m² | - |
| 1777549747 | 14.44° C | 93% | 1014.4 hPa | 0 mm | - | 8 W/m² | - |
| 1777549447 | 14.44° C | 92% | 1014.3 hPa | 0 mm | - | 5 W/m² | - |
| 1777549144 | 15° C | 92% | 1014.2 hPa | 0 mm | - | 3 W/m² | - |
| 1777548840 | 15° C | 92% | 1014.2 hPa | 0 mm | - | 1 W/m² | - |
| 1777548538 | 15° C | 92% | 1014.3 hPa | 0 mm | - | 0 W/m² | - |
| 1777548234 | 15° C | 91% | 1014.4 hPa | 0 mm | - | 0 W/m² | - |
| 1777547931 | 15° C | 91% | 1014.2 hPa | 0 mm | - | 0 W/m² | - |
| 1777547627 | 15° C | 91% | 1014.3 hPa | 0 mm | - | 0 W/m² | - |
| 1777547323 | 15° C | 91% | 1014.3 hPa | 0 mm | - | 0 W/m² | - |
| 1777547021 | 15° C | 91% | 1014.3 hPa | 0 mm | - | 0 W/m² | - |
| 1777546718 | 15° C | 90% | 1014.2 hPa | 0 mm | - | 0 W/m² | - |
| 1777546415 | 15° C | 90% | 1014.4 hPa | 0 mm | - | 0 W/m² | - |
| 1777546112 | 15° C | 90% | 1014.2 hPa | 0 mm | - | 0 W/m² | - |
| 1777545807 | 15° C | 90% | 1014.4 hPa | 0 mm | - | 0 W/m² | - |
| 1777545505 | 15° C | 90% | 1014.5 hPa | 0 mm | - | 0 W/m² | - |
| 1777545201 | 15° C | 90% | 1014.3 hPa | 0 mm | - | 0 W/m² | - |
| 1777544900 | 15° C | 89% | 1014.3 hPa | 0 mm | - | 0 W/m² | - |
| 1777544595 | 15° C | 89% | 1014.5 hPa | 0 mm | - | 0 W/m² | - |
| 1777544292 | 15° C | 89% | 1014.3 hPa | 0 mm | - | 0 W/m² | - |
* Rain latest hour (hover to see other rain measurements)
** Current wind speed in m/s (hover to see current wind gust speed)